THOR ABLESTAR DEB, 3842

Orbit data source: Space-Track

THOR ABLESTAR DEB, 3842 is space debris in LEO originally from a launch on Thu, 29 Jun 1961 UTC launched from the Air Force Eastern Test Range (AFETR). Debris objects in space refer to the collection of defunct objects orbiting the Earth. Examples of debris include non-operational satellites, rocket bodies, and fragments generated from explosions, collisions, or faulty payload assembly.

Loading next visibility...
Identifier
3842, 1961-015JF
Orbit
LEO
Country
Flag of USUS
Related business
Manufacturer
Unknown
Mission
Spacecraft
Bus & Motor
Unknown
Mass
Unknown
Launch date (UTC)
1961-06-29 (64 years ago)
Launch vehicle
Unknown
Launch site
Air Force Eastern Test Range (AFETR)
Object type
Payload
Rocket body
Debris
Shape & HBR
Unknown shape, 0.1 m
Radar Cross Section
Small (<0.1 m²)

Expand to show TLE details & history
Last TLE update: 2 days ago

TLE from 2 days ago
0 THOR ABLESTAR DEB
1 03842U 61015JF  25285.91103542  .00000496  00000-0  58686-3 0  9992
2 03842  66.7366 249.6138 0136941 273.5601  84.9815 13.71998223201254
Epoch: 2025-10-12T21:51Z
TLE epoch observation values (Epoch: 2025-10-12T21:51:53.460Z)
Latitude
0.00003°
Longitude
-100.08032°
Altitude
987.002 km
Speed
7.362 km/s
True Right ascension
16h 38m 27s
True Declination
0° 00' 00"
Sunlit
Object was in daylight at epoch
Visualization orbit readout
Latitude
Unknown
Longitude
Unknown
Altitude
Unknown
Speed
Unknown
Apparent Right ascension
Unknown
Apparent Declination
Unknown
Sunlit
N/A
Visualization observer readout
Local Sidereal Time
07:01:00
Azimuth
Unknown
Elevation
Unknown
Doppler factor
Unknown
Orbital elements
Apogee altitude
1,091.732 km
Perigee altitude
889.909 km
Semi-major axis
7,368.958 km
Eccentricity
0.01369
Inclination
66.7366°
RAAN
249.6138°
Arg. of periapsis
273.5601°
True anomaly
86.54686°
Mean anomaly
84.9815°
Eccentric anomaly
85.76397°
Mean motion
3.43111 °/min
Orbital period
104.92 mins
BSTAR
0.00058686
Loading maneuver chart data...
Computing Atmospheric mass density...

Documentation

Showing up to 5 results
|